Location: Lecco
(45.8566°N, 9.3977°E)
Time: 22:19:04
(UTC+02:00)

Vanguard 1 Rocket - Pass Details

Date: 21 August 2020
Orbit: 655 x 4221 km, 34.3° (Epoch: 30 September)

Event Time Altitude Azimuth Distance (km) Brightness Sun altitude
Exits shadow 04:42:38 19° 218° (SW) 4,767 10.4 -17.2°
Maximum altitude 04:51:54 36° 169° (SSE) 2,855 9.7 -15.9°
Drops below altitude 10° 04:59:56 10° 106° (ESE) 3,420 10.9 -14.8°
Sets 05:02:27 0° 97° (E) 4,071 11.5 -14.4°
